sat.trackr.live / text

‹ back to catalog

GEESAT-2 10

NORAD 58914 · 2024-023K

PAYLOAD ACTIVE UNKNOWN

§ Identity

Operator
Country
PRC
Launch date
2024-02-02
Launch site
XICLF
Launch vehicle
Mass (kg)
RCS (m²)

External: N2YO · Heavens-Above · Gunter

§ Orbital elements

Epoch: 2026-05-25T03:50:44.890656Z

Period
97.09 min
Inclination
49.9941°
Eccentricity
0.0010080
Mean motion
14.83151443 rev/d
Perigee alt
612.3 km
Apogee alt
626.4 km
Semi-major
6,997.5 km
B*
1.4042e-4
RAAN
100.6304°
Arg perigee
271.0368°
Mean anomaly
88.9415°
Rev number
12,549

§ Raw data

GEESAT-2 101 58914U 24023K   26145.16024179  .00000931  00000+0  14042-3 0  99922 58914  49.9941 100.6304 0010080 271.0368  88.9415 14.83151443125495

JSON: /api/v1/satellites/58914 · /tle

For live sub-satellite position, see the globe view (requires WebGL).

§ Visibility from observer

Set your observer location to see the next 7 days of passes ≥ 10°. The values pass through the URL so the page stays shareable.

No JS? Fill the form by hand. The geolocation button needs JavaScript.